When you browse on this site, cookies collect data to enhance your experience and personalize the content and advertising you see.
Visit our Privacy Policy to learn more. By continuing to use the site, you agree to this use of cookies and data.
  • In Hungary
  • List of Countries
  • For 7 days
  • Water Temperature
  • Weather Map
  • News
  • Weather Widgets
  • user-avatar
    Login

    Hourly Weather Andrianovka

    Today, 23 February, Sunday

    Time Temperature Precipitation Wind Pressure Humidity
    00:00 -4°C° 0 mm 3 mps 758 mmHg 97%
    01:00 -4°C° 0.1 mm 3 mps 758 mmHg 97%
    02:00 -4°C° 0.1 mm 3 mps 757 mmHg 97%
    03:00 -4°C° 0.1 mm 3 mps 756 mmHg 97%
    04:00 -4°C° 0 mm 4 mps 756 mmHg 96%
    05:00 -4°C° 0 mm 4 mps 755 mmHg 96%
    06:00 -4°C° 0 mm 4 mps 754 mmHg 96%
    07:00 -4°C° 0.1 mm 5 mps 753 mmHg 95%
    08:00 -4°C° 0.1 mm 5 mps 753 mmHg 94%
    09:00 -2°C° 0.1 mm 5 mps 752 mmHg 94%
    10:00 -3°C° 0 mm 6 mps 751 mmHg 95%
    11:00 -3°C° 0 mm 6 mps 750 mmHg 96%
    12:00 -2°C° 0 mm 6 mps 750 mmHg 98%
    13:00 -2°C° 0.1 mm 6 mps 749 mmHg 95%
    14:00 -2°C° 0.1 mm 7 mps 748 mmHg 92%
    15:00 -2°C° 0.1 mm 7 mps 747 mmHg 89%
    16:00 -2°C° 0.4 mm 7 mps 746 mmHg 92%
    17:00 -2°C° 0.4 mm 7 mps 746 mmHg 94%
    18:00 -3°C° 0.4 mm 7 mps 745 mmHg 97%
    19:00 -3°C° 0.6 mm 7 mps 745 mmHg 97%
    20:00 -3°C° 0.6 mm 7 mps 744 mmHg 97%
    21:00 -3°C° 0.6 mm 7 mps 744 mmHg 97%
    22:00 -2°C° 0.3 mm 6 mps 743 mmHg 97%
    23:00 -2°C° 0.3 mm 6 mps 743 mmHg 97%

    Tomorrow, 24 February, Monday

    Time Temperature Precipitation Wind Pressure Humidity
    00:00 -1°C° 0.3 mm 5 mps 742 mmHg 98%
    01:00 -1°C° 0.2 mm 4 mps 742 mmHg 98%
    02:00 -1°C° 0.2 mm 4 mps 741 mmHg 98%
    03:00 0°C° 0.2 mm 3 mps 741 mmHg 98%
    04:00 0°C° 0.3 mm 3 mps 741 mmHg 98%
    05:00 -1°C° 0.3 mm 3 mps 741 mmHg 97%
    06:00 -1°C° 0.3 mm 3 mps 740 mmHg 97%
    07:00 -1°C° 0 mm 3 mps 741 mmHg 96%
    08:00 -1°C° 0 mm 3 mps 741 mmHg 96%
    09:00 -2°C° 0 mm 4 mps 742 mmHg 95%
    10:00 -1°C° 0 mm 4 mps 741 mmHg 95%
    11:00 -1°C° 0 mm 4 mps 741 mmHg 95%
    12:00 -1°C° 0 mm 4 mps 741 mmHg 95%
    13:00 -1°C° 0.1 mm 4 mps 740 mmHg 96%
    14:00 -1°C° 0.1 mm 5 mps 739 mmHg 98%
    15:00 -1°C° 0.1 mm 5 mps 739 mmHg 99%
    16:00 -1°C° 1 mm 5 mps 738 mmHg 99%
    17:00 -2°C° 1 mm 6 mps 737 mmHg 98%
    18:00 -2°C° 1 mm 6 mps 737 mmHg 98%
    19:00 -2°C° 1.2 mm 6 mps 736 mmHg 98%
    20:00 -1°C° 1.2 mm 5 mps 736 mmHg 98%
    21:00 -1°C° 1.2 mm 5 mps 735 mmHg 98%
    22:00 -1°C° 0.9 mm 4 mps 735 mmHg 98%
    23:00 -1°C° 0.9 mm 4 mps 734 mmHg 98%

    Day after tomorrow, 25 February, Tuesday

    Time Temperature Precipitation Wind Pressure Humidity
    00:00 0°C° 0.9 mm 3 mps 734 mmHg 98%
    01:00 +1°C° 0.9 mm 2 mps 734 mmHg 99%
    02:00 +1°C° 0.9 mm 2 mps 734 mmHg 99%
    03:00 +2°C° 0.9 mm 1 mps 734 mmHg 99%
    04:00 -1°C° 0.6 mm 4 mps 734 mmHg 98%
    05:00 -3°C° 0.6 mm 6 mps 734 mmHg 97%
    06:00 -4°C° 0.6 mm 8 mps 734 mmHg 96%
    07:00 -4°C° 0.5 mm 9 mps 735 mmHg 94%
    08:00 -4°C° 0.5 mm 9 mps 736 mmHg 92%
    09:00 -4°C° 0.5 mm 10 mps 737 mmHg 89%
    10:00 -4°C° 0 mm 10 mps 738 mmHg 87%
    11:00 -5°C° 0 mm 10 mps 739 mmHg 85%
    12:00 -5°C° 0 mm 10 mps 740 mmHg 83%
    13:00 -5°C° 0 mm 9 mps 741 mmHg 82%
    14:00 -5°C° 0 mm 9 mps 742 mmHg 80%
    15:00 -5°C° 0 mm 8 mps 743 mmHg 79%
    16:00 -4°C° 0 mm 7 mps 744 mmHg 80%
    17:00 -6°C° 0 mm 7 mps 745 mmHg 81%
    18:00 -6°C° 0 mm 6 mps 745 mmHg 82%
    19:00 -6°C° 0 mm 5 mps 746 mmHg 84%
    20:00 -6°C° 0 mm 5 mps 747 mmHg 85%
    21:00 -5°C° 0 mm 4 mps 747 mmHg 87%
    22:00 -5°C° 0 mm 4 mps 747 mmHg 88%
    23:00 -5°C° 0 mm 4 mps 747 mmHg 89%

    26 February, Wednesday

    Time Temperature Precipitation Wind Pressure Humidity
    00:00 -7°C° 0 mm 4 mps 747 mmHg 90%
    01:00 -6°C° 0 mm 3 mps 747 mmHg 91%
    02:00 -6°C° 0 mm 3 mps 747 mmHg 91%
    03:00 -6°C° 0 mm 3 mps 747 mmHg 92%
    04:00 -6°C° 0 mm 3 mps 747 mmHg 92%
    05:00 -5°C° 0 mm 3 mps 747 mmHg 92%
    06:00 -5°C° 0 mm 3 mps 746 mmHg 92%
    07:00 -4°C° 0 mm 4 mps 746 mmHg 92%
    08:00 -4°C° 0 mm 4 mps 746 mmHg 93%
    09:00 -4°C° 0 mm 5 mps 746 mmHg 93%
    10:00 -2°C° 0 mm 5 mps 746 mmHg 95%
    11:00 -1°C° 0 mm 5 mps 746 mmHg 97%
    12:00 -1°C° 0 mm 4 mps 746 mmHg 99%
    13:00 -1°C° 0 mm 4 mps 746 mmHg 99%
    14:00 0°C° 0 mm 4 mps 746 mmHg 99%
    15:00 0°C° 0 mm 4 mps 746 mmHg 99%
    16:00 0°C° 0 mm 4 mps 745 mmHg 97%
    17:00 0°C° 0 mm 4 mps 745 mmHg 95%
    18:00 +1°C° 0 mm 3 mps 745 mmHg 93%
    19:00 -1°C° 0 mm 4 mps 746 mmHg 91%
    20:00 -1°C° 0 mm 4 mps 746 mmHg 90%
    21:00 -1°C° 0 mm 4 mps 746 mmHg 88%
    22:00 -1°C° 0 mm 4 mps 746 mmHg 88%
    23:00 0°C° 0 mm 4 mps 746 mmHg 89%

    27 February, Thursday

    Time Temperature Precipitation Wind Pressure Humidity
    00:00 0°C° 0 mm 4 mps 746 mmHg 89%
    01:00 0°C° 0 mm 4 mps 746 mmHg 89%
    02:00 -1°C° 0 mm 4 mps 746 mmHg 89%
    03:00 -1°C° 0 mm 4 mps 746 mmHg 89%
    04:00 -1°C° 0 mm 4 mps 746 mmHg 88%
    05:00 -1°C° 0 mm 5 mps 746 mmHg 87%
    06:00 -1°C° 0 mm 5 mps 745 mmHg 85%
    07:00 -1°C° 0 mm 5 mps 745 mmHg 84%
    08:00 -1°C° 0 mm 5 mps 745 mmHg 82%
    09:00 -1°C° 0 mm 5 mps 745 mmHg 80%
    10:00 0°C° 0 mm 5 mps 745 mmHg 80%
    11:00 0°C° 0 mm 5 mps 745 mmHg 81%
    12:00 +1°C° 0 mm 5 mps 745 mmHg 82%
    13:00 +1°C° 0 mm 5 mps 745 mmHg 81%
    14:00 +2°C° 0 mm 5 mps 744 mmHg 80%
    15:00 +2°C° 0 mm 5 mps 744 mmHg 79%
    16:00 +2°C° 0 mm 5 mps 744 mmHg 81%
    17:00 +1°C° 0 mm 4 mps 744 mmHg 82%
    18:00 +1°C° 0 mm 4 mps 744 mmHg 83%
    19:00 +1°C° 0 mm 4 mps 745 mmHg 84%
    20:00 +1°C° 0 mm 4 mps 745 mmHg 84%
    21:00 +1°C° 0 mm 4 mps 745 mmHg 85%
    22:00 +1°C° 0 mm 4 mps 745 mmHg 86%
    23:00 +1°C° 0 mm 4 mps 745 mmHg 87%

    28 February, Friday

    Time Temperature Precipitation Wind Pressure Humidity
    00:00 +1°C° 0 mm 4 mps 745 mmHg 87%
    01:00 +1°C° 0 mm 3 mps 745 mmHg 88%
    02:00 +1°C° 0 mm 3 mps 745 mmHg 89%
    03:00 +1°C° 0 mm 3 mps 746 mmHg 90%
    04:00 +1°C° 0 mm 3 mps 746 mmHg 90%
    05:00 +1°C° 0 mm 3 mps 746 mmHg 90%
    06:00 0°C° 0 mm 3 mps 746 mmHg 91%
    07:00 +1°C° 0 mm 3 mps 746 mmHg 91%
    08:00 +2°C° 0 mm 2 mps 746 mmHg 92%
    09:00 +2°C° 0 mm 2 mps 747 mmHg 93%
    10:00 +3°C° 0 mm 2 mps 747 mmHg 93%
    11:00 +4°C° 0 mm 2 mps 747 mmHg 92%
    12:00 +5°C° 0 mm 2 mps 747 mmHg 91%
    13:00 +5°C° 0 mm 2 mps 747 mmHg 92%
    14:00 +5°C° 0 mm 2 mps 747 mmHg 93%
    15:00 +5°C° 0 mm 2 mps 747 mmHg 94%
    16:00 +5°C° 0 mm 2 mps 747 mmHg 94%
    17:00 +4°C° 0 mm 2 mps 747 mmHg 94%
    18:00 +4°C° 0 mm 2 mps 748 mmHg 94%
    19:00 +4°C° 0 mm 2 mps 748 mmHg 94%
    20:00 +4°C° 0 mm 2 mps 748 mmHg 94%
    21:00 +4°C° 0 mm 1 mps 748 mmHg 94%
    22:00 +4°C° 0 mm 1 mps 748 mmHg 95%
    23:00 +4°C° 0 mm 1 mps 748 mmHg 95%
    Show more